FIN60H EKCH-EFHK

Flight info

Callsign FIN60H
Flight time 1h 22m
Altitude 37000
Route KEMAX T408 OTVEB DCT ALAMI DCT OKEVU DCT EVADI Y370 DIVAM
Aircraft A321/M-SDE3FGHIRWY/LB1

Departure

Time 2026-04-23 18:44
Airport Copenhagen Kastrup Airport (EKCH)

Arrival

Time 2026-04-23 20:06
Airport Helsinki Vantaa Airport (EFHK)
Time Latitude Longitude Altitude Speed Heading
2026-04-23 18:03 55.62742 12.64036 28 ft 0 kts 33°
2026-04-23 18:27 55.62730 12.64023 52 ft 4 kts 33°
2026-04-23 18:27 55.62710 12.63999 20 ft 4 kts 35°
2026-04-23 18:27 55.62695 12.63968 25 ft 4 kts 91°
2026-04-23 18:27 55.62703 12.63928 25 ft 3 kts 123°
2026-04-23 18:28 55.62706 12.63918 26 ft 0 kts 123°
2026-04-23 18:35 55.62704 12.63925 25 ft 2 kts 123°
2026-04-23 18:36 55.62687 12.63969 28 ft 6 kts 123°
2026-04-23 18:36 55.62660 12.64043 24 ft 8 kts 123°
2026-04-23 18:36 55.62626 12.64136 26 ft 10 kts 123°
2026-04-23 18:36 55.62583 12.64250 26 ft 13 kts 123°
2026-04-23 18:37 55.62532 12.64388 24 ft 14 kts 123°
2026-04-23 18:37 55.62457 12.64482 24 ft 14 kts 189°
2026-04-23 18:37 55.62356 12.64431 24 ft 16 kts 195°
2026-04-23 18:37 55.62241 12.64397 24 ft 18 kts 172°
2026-04-23 18:38 55.62116 12.64440 23 ft 18 kts 169°
2026-04-23 18:38 55.61987 12.64482 24 ft 19 kts 169°
2026-04-23 18:38 55.61849 12.64525 26 ft 21 kts 170°
2026-04-23 18:38 55.61726 12.64564 25 ft 12 kts 169°
2026-04-23 18:39 55.61646 12.64530 24 ft 13 kts 212°
2026-04-23 18:39 55.61566 12.64438 24 ft 14 kts 212°
2026-04-23 18:39 55.61475 12.64336 26 ft 18 kts 213°
2026-04-23 18:39 55.61364 12.64205 26 ft 20 kts 214°
2026-04-23 18:40 55.61244 12.64066 26 ft 21 kts 212°
2026-04-23 18:40 55.61115 12.63920 24 ft 23 kts 213°
2026-04-23 18:40 55.60982 12.63768 25 ft 24 kts 213°
2026-04-23 18:40 55.60842 12.63606 24 ft 24 kts 213°
2026-04-23 18:41 55.60697 12.63438 24 ft 25 kts 213°
2026-04-23 18:41 55.60565 12.63250 24 ft 20 kts 220°
2026-04-23 18:41 55.60474 12.63121 24 ft 12 kts 203°
2026-04-23 18:41 55.60407 12.63156 24 ft 0 kts 133°
2026-04-23 18:42 55.60404 12.63163 24 ft 3 kts 133°
2026-04-23 18:42 55.60375 12.63218 24 ft 8 kts 133°
2026-04-23 18:42 55.60343 12.63300 29 ft 8 kts 110°
2026-04-23 18:42 55.60359 12.63373 31 ft 1 kts 44°
2026-04-23 18:43 55.60398 12.63436 26 ft 30 kts 42°
2026-04-23 18:43 55.60771 12.64011 26 ft 108 kts 41°
2026-04-23 18:43 55.61501 12.65139 42 ft 165 kts 40°
2026-04-23 18:44 55.62348 12.66511 775 ft 157 kts 41°
2026-04-23 18:44 55.63122 12.67787 1654 ft 148 kts 38°
2026-04-23 18:44 55.63897 12.68998 2127 ft 158 kts 36°
2026-04-23 18:44 55.64791 12.70346 2435 ft 180 kts 35°
2026-04-23 18:45 55.65814 12.71861 2719 ft 202 kts 34°
2026-04-23 18:45 55.66965 12.73531 2978 ft 227 kts 35°
2026-04-23 18:45 55.68249 12.75399 3407 ft 249 kts 35°
2026-04-23 18:45 55.69610 12.77407 4151 ft 257 kts 35°
2026-04-23 18:46 55.70988 12.79463 5025 ft 260 kts 35°
2026-04-23 18:46 55.72375 12.81544 5903 ft 262 kts 36°
2026-04-23 18:46 55.73749 12.83613 6776 ft 263 kts 36°
2026-04-23 18:46 55.75148 12.85740 7577 ft 266 kts 36°
2026-04-23 18:47 55.76541 12.87918 8399 ft 268 kts 36°
2026-04-23 18:47 55.77944 12.90134 9210 ft 271 kts 36°
2026-04-23 18:47 55.79364 12.92379 10014 ft 274 kts 36°
2026-04-23 18:47 55.80828 12.94690 10464 ft 291 kts 36°
2026-04-23 18:48 55.82413 12.97173 10683 ft 313 kts 36°
2026-04-23 18:48 55.84068 12.99775 11221 ft 322 kts 36°
2026-04-23 18:48 55.85738 13.02420 11897 ft 326 kts 37°
2026-04-23 18:48 55.87441 13.05128 12618 ft 330 kts 37°
2026-04-23 18:49 55.89164 13.07867 13342 ft 333 kts 37°
2026-04-23 18:49 55.90906 13.10635 14070 ft 336 kts 37°
2026-04-23 18:49 55.92656 13.13412 14712 ft 338 kts 37°
2026-04-23 18:49 55.94423 13.16220 15363 ft 341 kts 37°
2026-04-23 18:50 55.95597 13.18086 15789 ft 342 kts 37°
2026-04-23 18:50 55.97996 13.21904 16652 ft 346 kts 37°
2026-04-23 18:50 55.99782 13.24749 17291 ft 349 kts 36°
2026-04-23 18:50 56.01602 13.27652 17944 ft 352 kts 36°
2026-04-23 18:51 56.03441 13.30591 18573 ft 355 kts 36°
2026-04-23 18:51 56.05290 13.33548 19096 ft 358 kts 37°
2026-04-23 18:51 56.07151 13.36532 19639 ft 361 kts 37°
2026-04-23 18:51 56.09032 13.39559 20179 ft 365 kts 37°
2026-04-23 18:52 56.10932 13.42615 20723 ft 368 kts 37°
2026-04-23 18:52 56.12805 13.45778 21302 ft 374 kts 42°
2026-04-23 18:52 56.14461 13.49346 21849 ft 379 kts 45°
2026-04-23 18:52 56.16130 13.53031 22411 ft 382 kts 45°
2026-04-23 18:53 56.17810 13.56743 22953 ft 385 kts 45°
2026-04-23 18:53 56.19508 13.60493 23475 ft 388 kts 46°
2026-04-23 18:53 56.21216 13.64272 23936 ft 391 kts 46°
2026-04-23 18:53 56.22948 13.68107 24357 ft 394 kts 46°
2026-04-23 18:54 56.24679 13.71945 24780 ft 396 kts 46°
2026-04-23 18:54 56.26422 13.75814 25201 ft 399 kts 46°
2026-04-23 18:54 56.28151 13.79656 25603 ft 401 kts 46°
2026-04-23 18:54 56.29915 13.83574 26011 ft 404 kts 46°
2026-04-23 18:55 56.31696 13.87543 26417 ft 406 kts 46°
2026-04-23 18:55 56.33478 13.91529 26855 ft 408 kts 46°
2026-04-23 18:55 56.34656 13.94176 27161 ft 409 kts 46°
2026-04-23 18:55 56.36442 13.98190 27587 ft 410 kts 46°
2026-04-23 18:56 56.38233 14.02209 27986 ft 413 kts 46°
2026-04-23 18:56 56.40044 14.06271 28360 ft 415 kts 46°
2026-04-23 18:56 56.42446 14.11679 28845 ft 419 kts 46°
2026-04-23 18:56 56.43675 14.14453 29101 ft 420 kts 46°
2026-04-23 18:57 56.45509 14.18603 29438 ft 423 kts 46°
2026-04-23 18:57 56.47348 14.22772 29776 ft 425 kts 46°
2026-04-23 18:57 56.49196 14.26967 30108 ft 428 kts 46°
2026-04-23 18:57 56.51035 14.31147 30399 ft 430 kts 46°
2026-04-23 18:58 56.52904 14.35402 30691 ft 433 kts 46°
2026-04-23 18:58 56.54779 14.39684 30998 ft 435 kts 46°
2026-04-23 18:58 56.56657 14.43978 31330 ft 436 kts 46°
2026-04-23 18:58 56.58548 14.48313 31650 ft 438 kts 46°
2026-04-23 18:59 56.60440 14.52660 32046 ft 437 kts 46°
2026-04-23 18:59 56.62322 14.56992 32451 ft 436 kts 46°
2026-04-23 18:59 56.64199 14.61322 32833 ft 436 kts 46°
2026-04-23 18:59 56.66077 14.65659 33212 ft 436 kts 46°
2026-04-23 19:00 56.67930 14.69939 33642 ft 435 kts 45°
2026-04-23 19:00 56.69798 14.74248 34087 ft 433 kts 45°
2026-04-23 19:00 56.71661 14.78553 34451 ft 431 kts 45°
2026-04-23 19:00 56.73514 14.82849 34782 ft 431 kts 45°
2026-04-23 19:01 56.75359 14.87150 35104 ft 431 kts 45°
2026-04-23 19:01 56.77204 14.91458 35453 ft 430 kts 45°
2026-04-23 19:01 56.79041 14.95752 35822 ft 428 kts 45°
2026-04-23 19:01 56.80854 14.99989 36160 ft 428 kts 45°
2026-04-23 19:02 56.82685 15.04271 36476 ft 428 kts 45°
2026-04-23 19:02 56.84522 15.08577 36761 ft 428 kts 45°
2026-04-23 19:02 56.86348 15.12872 37013 ft 429 kts 45°
2026-04-23 19:03 56.90006 15.21502 37084 ft 427 kts 45°
2026-04-23 19:03 56.93646 15.30111 37085 ft 427 kts 45°
2026-04-23 19:04 56.97256 15.38677 37084 ft 427 kts 45°
2026-04-23 19:04 57.00878 15.47320 37082 ft 426 kts 45°
2026-04-23 19:05 57.04478 15.55945 37092 ft 424 kts 45°
2026-04-23 19:05 57.08044 15.64490 37092 ft 424 kts 45°
2026-04-23 19:06 57.11626 15.73117 37095 ft 424 kts 45°
2026-04-23 19:06 57.15192 15.81753 37107 ft 424 kts 45°
2026-04-23 19:07 57.18742 15.90352 37086 ft 424 kts 45°
2026-04-23 19:07 57.22307 15.99013 37100 ft 423 kts 45°
2026-04-23 19:08 57.25863 16.07696 37096 ft 423 kts 46°
2026-04-23 19:08 57.29386 16.16351 37091 ft 423 kts 46°
2026-04-23 19:09 57.32916 16.25053 37086 ft 423 kts 46°
2026-04-23 19:09 57.36453 16.33798 37114 ft 422 kts 46°
2026-04-23 19:10 57.39908 16.42375 37067 ft 415 kts 45°
2026-04-23 19:10 57.43370 16.50961 37080 ft 415 kts 45°
2026-04-23 19:11 57.46825 16.59572 37080 ft 415 kts 45°
2026-04-23 19:11 57.50261 16.68189 37073 ft 415 kts 46°
2026-04-23 19:12 57.53110 16.75363 37071 ft 415 kts 46°
2026-04-23 19:12 57.57102 16.85433 37073 ft 415 kts 46°
2026-04-23 19:13 57.60523 16.94112 37069 ft 415 kts 46°
2026-04-23 19:13 57.63943 17.02804 37070 ft 415 kts 46°
2026-04-23 19:14 57.67359 17.11519 37065 ft 416 kts 46°
2026-04-23 19:14 57.70770 17.20257 37056 ft 414 kts 46°
2026-04-23 19:15 57.74118 17.28870 37051 ft 411 kts 46°
2026-04-23 19:15 57.77477 17.37554 37048 ft 411 kts 46°
2026-04-23 19:16 57.80844 17.46248 37054 ft 412 kts 46°
2026-04-23 19:16 57.84213 17.54973 37090 ft 412 kts 46°
2026-04-23 19:17 57.89210 17.68049 37079 ft 412 kts 46°
2026-04-23 19:17 57.92550 17.76811 37069 ft 411 kts 46°
2026-04-23 19:18 57.95885 17.85578 37064 ft 411 kts 46°
2026-04-23 19:18 57.99198 17.94306 37064 ft 411 kts 46°
2026-04-23 19:19 58.04189 18.07522 37086 ft 412 kts 47°
2026-04-23 19:20 58.09137 18.20745 37061 ft 412 kts 47°
2026-04-23 19:20 58.12441 18.29630 37057 ft 413 kts 47°
2026-04-23 19:21 58.17382 18.42936 37049 ft 413 kts 47°
2026-04-23 19:22 58.20683 18.51870 37050 ft 413 kts 47°
2026-04-23 19:22 58.25627 18.65315 37044 ft 412 kts 47°
2026-04-23 19:23 58.28874 18.74203 37044 ft 411 kts 47°
2026-04-23 19:24 58.33788 18.87673 37035 ft 412 kts 47°
2026-04-23 19:24 58.38637 19.01052 37019 ft 406 kts 47°
2026-04-23 19:25 58.45029 19.18823 37057 ft 406 kts 47°
2026-04-23 19:26 58.49803 19.32155 37033 ft 406 kts 47°
2026-04-23 19:27 58.57760 19.54569 37025 ft 407 kts 47°
2026-04-23 19:28 58.64069 19.72500 37026 ft 406 kts 47°
2026-04-23 19:29 58.68802 19.86041 37018 ft 405 kts 47°
2026-04-23 19:30 58.73479 19.99484 36997 ft 404 kts 47°
2026-04-23 19:31 58.78168 20.13032 37022 ft 405 kts 47°
2026-04-23 19:31 58.81286 20.22122 37008 ft 406 kts 47°
2026-04-23 19:32 58.84390 20.31162 37000 ft 406 kts 47°
2026-04-23 19:32 58.87505 20.40268 37017 ft 406 kts 47°
2026-04-23 19:33 58.90611 20.49401 37002 ft 406 kts 48°
2026-04-23 19:33 58.95253 20.63141 36998 ft 406 kts 48°
2026-04-23 19:34 58.98327 20.72278 36995 ft 407 kts 48°
2026-04-23 19:35 59.02941 20.86093 36981 ft 405 kts 48°
2026-04-23 19:35 59.05985 20.95283 36994 ft 405 kts 49°
2026-04-23 19:36 59.08958 21.04642 36975 ft 407 kts 50°
2026-04-23 19:36 59.11897 21.14104 36971 ft 409 kts 50°
2026-04-23 19:37 59.14822 21.23518 36962 ft 409 kts 50°
2026-04-23 19:37 59.17776 21.33034 36965 ft 409 kts 50°
2026-04-23 19:38 59.20744 21.42540 36964 ft 409 kts 49°
2026-04-23 19:38 59.22238 21.47168 36693 ft 410 kts 48°
2026-04-23 19:38 59.23811 21.51920 35670 ft 419 kts 48°
2026-04-23 19:38 59.25416 21.56711 34985 ft 421 kts 47°
2026-04-23 19:39 59.27010 21.61498 34368 ft 420 kts 47°
2026-04-23 19:39 59.28596 21.66309 33775 ft 418 kts 47°
2026-04-23 19:39 59.30150 21.71070 33211 ft 414 kts 48°
2026-04-23 19:39 59.31676 21.75774 32684 ft 411 kts 48°
2026-04-23 19:40 59.33194 21.80478 32268 ft 406 kts 47°
2026-04-23 19:40 59.34697 21.85143 31814 ft 401 kts 47°
2026-04-23 19:40 59.36178 21.89741 31304 ft 396 kts 47°
2026-04-23 19:40 59.37640 21.94292 30803 ft 392 kts 47°
2026-04-23 19:41 59.39085 21.98791 30229 ft 386 kts 47°
2026-04-23 19:41 59.40498 22.03200 29056 ft 377 kts 47°
2026-04-23 19:41 59.41423 22.06088 28233 ft 373 kts 47°
2026-04-23 19:41 59.43196 22.11659 27498 ft 346 kts 47°
2026-04-23 19:42 59.44416 22.15555 27214 ft 324 kts 46°
2026-04-23 19:42 59.45607 22.19308 26769 ft 319 kts 45°
2026-04-23 19:42 59.46769 22.22938 26582 ft 311 kts 45°
2026-04-23 19:42 59.47925 22.26527 26295 ft 310 kts 45°
2026-04-23 19:43 59.49080 22.30104 25975 ft 309 kts 45°
2026-04-23 19:43 59.50229 22.33684 25650 ft 308 kts 45°
2026-04-23 19:43 59.50982 22.36047 25433 ft 307 kts 45°
2026-04-23 19:43 59.52111 22.39611 25107 ft 306 kts 45°
2026-04-23 19:44 59.53600 22.44330 24669 ft 304 kts 45°
2026-04-23 19:44 59.54355 22.46724 24438 ft 303 kts 45°
2026-04-23 19:44 59.55453 22.50209 24109 ft 302 kts 45°
2026-04-23 19:44 59.56559 22.53716 23774 ft 300 kts 45°
2026-04-23 19:45 59.57661 22.57217 23424 ft 299 kts 45°
2026-04-23 19:45 59.58754 22.60698 23046 ft 297 kts 46°
2026-04-23 19:45 59.59842 22.64172 22693 ft 297 kts 46°
2026-04-23 19:45 59.60926 22.67637 22329 ft 296 kts 46°
2026-04-23 19:46 59.62006 22.71095 21994 ft 295 kts 46°
2026-04-23 19:46 59.63066 22.74497 21650 ft 294 kts 46°
2026-04-23 19:46 59.64135 22.77942 21328 ft 293 kts 46°
2026-04-23 19:46 59.65198 22.81368 20950 ft 292 kts 46°
2026-04-23 19:47 59.66262 22.84791 20581 ft 291 kts 46°
2026-04-23 19:47 59.67323 22.88205 20250 ft 290 kts 46°
2026-04-23 19:47 59.68377 22.91611 19899 ft 289 kts 46°
2026-04-23 19:47 59.69417 22.94977 19544 ft 289 kts 47°
2026-04-23 19:48 59.70464 22.98373 19192 ft 288 kts 47°
2026-04-23 19:48 59.71509 23.01768 18852 ft 287 kts 47°
2026-04-23 19:48 59.72551 23.05150 18508 ft 287 kts 47°
2026-04-23 19:48 59.73586 23.08522 18160 ft 286 kts 47°
2026-04-23 19:49 59.74620 23.11894 17782 ft 285 kts 47°
2026-04-23 19:49 59.75651 23.15261 17427 ft 284 kts 47°
2026-04-23 19:49 59.76676 23.18612 17071 ft 283 kts 48°
2026-04-23 19:49 59.77694 23.21948 16738 ft 282 kts 48°
2026-04-23 19:50 59.78712 23.25282 16392 ft 281 kts 48°
2026-04-23 19:50 59.79709 23.28555 16059 ft 280 kts 49°
2026-04-23 19:50 59.80729 23.31905 15712 ft 279 kts 49°
2026-04-23 19:50 59.81716 23.35159 15377 ft 278 kts 49°
2026-04-23 19:51 59.82713 23.38448 15038 ft 277 kts 49°
2026-04-23 19:51 59.83705 23.41726 14714 ft 276 kts 49°
2026-04-23 19:51 59.84692 23.44995 14366 ft 275 kts 50°
2026-04-23 19:51 59.85674 23.48248 14032 ft 274 kts 50°
2026-04-23 19:52 59.86653 23.51493 13696 ft 273 kts 50°
2026-04-23 19:52 59.87631 23.54728 13338 ft 272 kts 50°
2026-04-23 19:52 59.88601 23.57941 12996 ft 271 kts 50°
2026-04-23 19:52 59.89570 23.61160 12664 ft 270 kts 51°
2026-04-23 19:53 59.90520 23.64324 12343 ft 269 kts 51°
2026-04-23 19:53 59.91475 23.67525 12012 ft 268 kts 51°
2026-04-23 19:53 59.92426 23.70718 11690 ft 267 kts 51°
2026-04-23 19:53 59.93376 23.73906 11359 ft 266 kts 51°
2026-04-23 19:54 59.94319 23.77075 11043 ft 264 kts 52°
2026-04-23 19:54 59.95251 23.80213 10739 ft 263 kts 52°
2026-04-23 19:54 59.96182 23.83346 10403 ft 261 kts 52°
2026-04-23 19:54 59.97098 23.86429 10085 ft 260 kts 52°
2026-04-23 19:55 59.98019 23.89525 9764 ft 259 kts 52°
2026-04-23 19:55 59.98938 23.92624 9424 ft 258 kts 53°
2026-04-23 19:55 59.99847 23.95700 9090 ft 255 kts 53°
2026-04-23 19:55 60.00745 23.98745 8777 ft 253 kts 53°
2026-04-23 19:56 60.01645 24.01792 8409 ft 253 kts 53°
2026-04-23 19:56 60.02531 24.04801 8128 ft 249 kts 53°
2026-04-23 19:56 60.03407 24.07774 7829 ft 247 kts 53°
2026-04-23 19:56 60.04279 24.10731 7535 ft 246 kts 54°
2026-04-23 19:57 60.05133 24.13634 7237 ft 244 kts 54°
2026-04-23 19:57 60.05991 24.16566 6922 ft 243 kts 54°
2026-04-23 19:57 60.06836 24.19462 6622 ft 241 kts 54°
2026-04-23 19:57 60.07682 24.22360 6319 ft 240 kts 54°
2026-04-23 19:58 60.08526 24.25253 6001 ft 238 kts 55°
2026-04-23 19:58 60.09355 24.28098 5699 ft 236 kts 55°
2026-04-23 19:58 60.10177 24.30923 5403 ft 233 kts 55°
2026-04-23 19:58 60.10979 24.33685 5116 ft 230 kts 56°
2026-04-23 19:59 60.11782 24.36452 4827 ft 227 kts 56°
2026-04-23 19:59 60.12571 24.39178 4536 ft 225 kts 56°
2026-04-23 19:59 60.13351 24.41875 4245 ft 222 kts 56°
2026-04-23 19:59 60.14122 24.44531 3959 ft 218 kts 56°
2026-04-23 20:00 60.14875 24.47132 3768 ft 211 kts 56°
2026-04-23 20:00 60.15596 24.49629 3709 ft 207 kts 56°
2026-04-23 20:00 60.16319 24.52126 3671 ft 206 kts 56°
2026-04-23 20:00 60.17030 24.54591 3616 ft 206 kts 56°
2026-04-23 20:01 60.17748 24.57092 3576 ft 206 kts 57°
2026-04-23 20:01 60.18463 24.59580 3529 ft 206 kts 56°
2026-04-23 20:01 60.19180 24.62076 3422 ft 204 kts 57°
2026-04-23 20:01 60.19893 24.64563 3325 ft 205 kts 57°
2026-04-23 20:02 60.20666 24.66962 3243 ft 204 kts 49°
2026-04-23 20:02 60.21567 24.69105 3017 ft 200 kts 45°
2026-04-23 20:02 60.22496 24.71155 2765 ft 196 kts 43°
2026-04-23 20:02 60.23411 24.73150 2499 ft 192 kts 44°
2026-04-23 20:03 60.24300 24.75088 2261 ft 184 kts 44°
2026-04-23 20:03 60.25161 24.76966 1988 ft 181 kts 44°
2026-04-23 20:03 60.26010 24.78819 1741 ft 175 kts 44°
2026-04-23 20:03 60.26809 24.80566 1497 ft 164 kts 44°
2026-04-23 20:04 60.27539 24.82162 1281 ft 150 kts 44°
2026-04-23 20:04 60.28231 24.83675 1063 ft 145 kts 45°
2026-04-23 20:04 60.28910 24.85161 871 ft 143 kts 45°
2026-04-23 20:04 60.29587 24.86643 669 ft 142 kts 46°
2026-04-23 20:05 60.30249 24.88094 481 ft 142 kts 46°
2026-04-23 20:05 60.30915 24.89555 311 ft 141 kts 46°
2026-04-23 20:05 60.31579 24.91016 179 ft 139 kts 46°
2026-04-23 20:05 60.32149 24.92260 162 ft 99 kts 47°
2026-04-23 20:06 60.32510 24.93055 164 ft 63 kts 47°
2026-04-23 20:06 60.32802 24.93702 174 ft 66 kts 48°
2026-04-23 20:06 60.33050 24.94264 176 ft 23 kts 69°
2026-04-23 20:06 60.33046 24.94537 164 ft 23 kts 92°
2026-04-23 20:07 60.32994 24.94729 162 ft 15 kts 136°
2026-04-23 20:07 60.32973 24.94767 161 ft 0 kts 137°
2026-04-23 20:07 60.32968 24.94776 161 ft 4 kts 137°
2026-04-23 20:08 60.32942 24.94823 161 ft 6 kts 137°
2026-04-23 20:08 60.32903 24.94894 161 ft 9 kts 141°
2026-04-23 20:08 60.32842 24.94949 161 ft 11 kts 161°
2026-04-23 20:08 60.32761 24.95002 161 ft 13 kts 165°
2026-04-23 20:09 60.32666 24.95060 161 ft 15 kts 162°
2026-04-23 20:09 60.32564 24.95129 161 ft 16 kts 161°
2026-04-23 20:09 60.32450 24.95204 161 ft 18 kts 162°
2026-04-23 20:09 60.32323 24.95299 161 ft 20 kts 144°
2026-04-23 20:10 60.32252 24.95425 161 ft 21 kts 135°
2026-04-23 20:10 60.32169 24.95583 161 ft 0 kts 137°
2026-04-23 20:12 60.32168 24.95585 162 ft 2 kts 137°
2026-04-23 20:13 60.32128 24.95660 162 ft 13 kts 137°
2026-04-23 20:13 60.32055 24.95794 163 ft 15 kts 137°
2026-04-23 20:13 60.31972 24.95946 162 ft 16 kts 137°
2026-04-23 20:13 60.31897 24.96086 161 ft 12 kts 137°
2026-04-23 20:14 60.31846 24.96154 161 ft 9 kts 153°
2026-04-23 20:14 60.31805 24.96221 161 ft 3 kts 139°
2026-04-23 20:14 60.31787 24.96252 161 ft 2 kts 139°
2026-04-23 20:14 60.31780 24.96266 161 ft 0 kts 138°